Tracking 30995 objects as of 5-Jul-2025
HD Live streaming from Space Station
objects crossing your sky now

ONEWEB-0046

Track ONEWEB-0046 now!
10-day predictions
ONEWEB-0046 is classified as:


NORAD ID: 45447
Int'l Code: 2020-020Z
Perigee: 1,223.6 km
Apogee: 1,226.0 km
Inclination: 87.9 °
Period: 109.8 minutes
Semi major axis: 7595 km
RCS: Unknown
Launch date: March 21, 2020
Source: United Kingdom (UK)
Launch site: TYURATAM MISSILE AND SPACE COMPLEX (TTMTR)
Your satellite tracking list
Your tracking list is empty




NASA's NSSDC Master Catalog

Two Line Element Set (TLE):
1 45447U 20020Z   25186.29986658 -.00000418  00000-0 -12152-2 0  9991
2 45447  87.8838  90.2008 0001613  79.3236 280.8073 13.11417350257141
Source of the keplerian elements: AFSPC